Location: Dehesa de la Cepeda
(40.6574°N, 4.3013°W)
Time: 01:32:33
(UTC+00:00)

Cosmos 1400 Rocket - Visible Passes

Search period start: 24 October 2020 00:00
Search period end: 03 November 2020 00:00
Orbit: 521 x 568 km, 81.2° (Epoch: 23 October)

Date Brightness Start Highest point End Pass type
(mag) Time Alt. Az. Time Alt. Az. Time Alt. Az.
24 Oct 4.6 05:17:55 10° N 05:21:32 33° ENE 05:25:05 10° SE visible
24 Oct 4.0 19:12:34 10° SSW 19:16:32 45° WNW 19:20:30 10° N visible
25 Oct 4.4 05:11:52 10° N 05:15:32 35° ENE 05:19:07 10° SE visible
25 Oct 4.1 19:06:36 10° SSW 19:10:32 42° WNW 19:14:27 10° N visible
26 Oct 4.3 05:05:49 10° N 05:09:31 38° ENE 05:13:09 10° SE visible
26 Oct 4.3 19:00:39 10° SSW 19:04:32 39° WNW 19:08:24 10° N visible
27 Oct 4.1 04:59:46 10° N 05:03:31 40° ENE 05:07:11 10° SSE visible
27 Oct 4.4 18:54:42 10° SW 18:58:31 37° WNW 19:02:21 10° N visible
28 Oct 3.9 04:53:43 10° N 04:57:30 43° ENE 05:01:12 10° SSE visible
28 Oct 4.6 18:48:45 10° SW 18:52:31 34° WNW 18:56:18 10° N visible
29 Oct 3.8 04:47:41 10° N 04:51:29 46° ENE 04:55:13 10° SSE visible
29 Oct 4.7 18:42:49 10° SW 18:46:31 32° WNW 18:50:14 10° N visible
30 Oct 3.6 04:41:39 10° N 04:45:29 50° ENE 04:49:15 10° SSE visible
30 Oct 4.9 18:36:53 10° SW 18:40:31 30° WNW 18:44:10 10° NNW visible
31 Oct 3.4 04:38:07 35° NNE 04:39:28 54° ENE 04:43:15 10° SSE visible
31 Oct 5.0 18:30:58 10° SW 18:34:32 28° WNW 18:38:06 10° NNW visible
01 Nov 3.7 04:34:29 42° SE 04:34:29 42° SE 04:37:15 10° SSE visible
01 Nov 5.1 18:25:02 10° SW 18:28:32 27° WNW 18:32:01 10° NNW visible
02 Nov 5.2 04:30:34 15° SSE 04:30:34 15° SSE 04:31:16 10° SSE visible
02 Nov 5.2 18:19:07 10° SW 18:22:32 25° WNW 18:25:56 10° NNW visible
